Location: Heisler
(52.6701°N, 112.2239°W)
Time: 14:59:05
(UTC+00:00)

Envisat - Pass Details

Date: 08 December 2021
Orbit: 764 x 766 km, 98.2° (Epoch: 26 January)

Event Time Altitude Azimuth Distance (km) Brightness Sun altitude
Rises 13:01:12 0° 13° (NNE) 3,248 6.3 -20.8°
Reaches altitude 10° 13:03:31 10° 11° (N) 2,317 5.5 -20.5°
Maximum altitude 13:08:35 70° 289° (WNW) 818 2.9 -19.7°
Drops below altitude 10° 13:13:38 10° 207° (SSW) 2,299 5.3 -19.0°
Sets 13:15:56 0° 205° (SSW) 3,221 6.1 -18.7°
